�������l�o���
Date,Time,MP-1(��Sv/h),MP-2(��Sv/h),MP-3(��Sv/h),MP-4(��Sv/h),MP-5(��Sv/h),MP-6(��Sv/h),MP-7(��Sv/h),MP-8(��Sv/h),����,����(m/s),���J
2022/10/23,00:00,0.574,0.823,0.529,1.028,0.726,0.337,0.585,0.555,���k��,5.4,��
2022/10/23,00:10,0.574,0.824,0.530,1.025,0.724,0.336,0.587,0.553,��,3.8,��
2022/10/23,00:20,0.572,0.824,0.529,1.026,0.726,0.337,0.585,0.555,��,2.8,��
2022/10/23,00:30,0.573,0.823,0.531,1.025,0.727,0.335,0.585,0.554,��,1.5,��
2022/10/23,00:40,0.573,0.823,0.530,1.028,0.727,0.335,0.586,0.555,�쓌,2.0,��
2022/10/23,00:50,0.574,0.825,0.530,1.025,0.724,0.336,0.588,0.554,��쓌,2.3,��
2022/10/23,01:00,0.574,0.825,0.531,1.027,0.728,0.336,0.586,0.555,��쓌,3.7,��
2022/10/23,01:10,0.574,0.823,0.528,1.027,0.727,0.336,0.588,0.555,��,3.3,��
2022/10/23,01:20,0.573,0.824,0.530,1.026,0.726,0.337,0.588,0.553,�쐼,3.4,��
2022/10/23,01:30,0.573,0.826,0.530,1.027,0.727,0.338,0.585,0.555,�쐼,4.4,��
2022/10/23,01:40,0.574,0.825,0.529,1.025,0.726,0.338,0.587,0.555,�쐼,4.2,��
2022/10/23,01:50,0.574,0.824,0.530,1.025,0.726,0.339,0.587,0.554,�쐼,5.2,��
2022/10/23,02:00,0.574,0.823,0.529,1.028,0.727,0.339,0.588,0.555,���쐼,3.6,��
2022/10/23,02:10,0.572,0.823,0.531,1.027,0.727,0.337,0.588,0.555,�쐼,4.2,��
2022/10/23,02:20,0.573,0.823,0.529,1.027,0.727,0.336,0.588,0.554,���쐼,4.3,��
2022/10/23,02:30,0.573,0.823,0.531,1.029,0.727,0.337,0.588,0.553,��,4.0,��
2022/10/23,02:40,0.572,0.823,0.530,1.025,0.726,0.337,0.586,0.553,��,4.1,��
2022/10/23,02:50,0.573,0.820,0.530,1.027,0.727,0.337,0.589,0.555,��,3.9,��
2022/10/23,03:00,0.573,0.822,0.529,1.028,0.728,0.338,0.588,0.555,���k��,5.4,��
2022/10/23,03:10,0.574,0.823,0.530,1.025,0.726,0.338,0.587,0.555,���k��,7.8,��
2022/10/23,03:20,0.575,0.823,0.529,1.026,0.727,0.337,0.586,0.554,���k��,9.8,��
2022/10/23,03:30,0.573,0.823,0.531,1.025,0.727,0.337,0.587,0.556,���k��,9.7,��
2022/10/23,03:40,0.574,0.824,0.529,1.029,0.726,0.338,0.586,0.556,�쐼,2.2,��
2022/10/23,03:50,0.573,0.824,0.532,1.026,0.726,0.337,0.585,0.555,��쓌,1.7,��
2022/10/23,04:00,0.574,0.824,0.530,1.026,0.726,0.337,0.587,0.556,��,2.5,��
2022/10/23,04:10,0.573,0.822,0.529,1.026,0.728,0.337,0.586,0.555,��,4.1,��
2022/10/23,04:20,0.574,0.825,0.530,1.027,0.725,0.337,0.587,0.555,��쓌,3.4,��
2022/10/23,04:30,0.574,0.823,0.531,1.027,0.726,0.338,0.589,0.555,��쓌,2.8,��
2022/10/23,04:40,0.574,0.823,0.529,1.027,0.726,0.338,0.587,0.555,��,3.2,��
2022/10/23,04:50,0.572,0.822,0.530,1.026,0.725,0.339,0.588,0.556,��,3.6,��
2022/10/23,05:00,0.573,0.824,0.528,1.025,0.726,0.338,0.587,0.555,�쐼,1.4,��
2022/10/23,05:10,0.573,0.822,0.530,1.028,0.726,0.338,0.586,0.553,��,1.5,��
2022/10/23,05:20,0.573,0.822,0.530,1.027,0.727,0.337,0.590,0.553,��쓌,2.0,��
2022/10/23,05:30,0.573,0.825,0.530,1.026,0.727,0.337,0.587,0.554,��쓌,1.2,��
2022/10/23,05:40,0.572,0.822,0.530,1.026,0.726,0.338,0.588,0.555,-,CALM,��
2022/10/23,05:50,0.573,0.822,0.528,1.027,0.726,0.336,0.586,0.555,��,0.9,��
2022/10/23,06:00,0.575,0.821,0.529,1.025,0.726,0.338,0.586,0.553,-,CALM,��
2022/10/23,06:10,0.574,0.824,0.529,1.026,0.726,0.336,0.587,0.554,�k,1.2,��
2022/10/23,06:20,0.572,0.823,0.529,1.028,0.726,0.338,0.588,0.553,�k,3.3,��
2022/10/23,06:30,0.572,0.824,0.531,1.028,0.726,0.338,0.586,0.554,�k,3.7,��
2022/10/23,06:40,0.573,0.824,0.530,1.026,0.726,0.338,0.586,0.554,�k�k��,4.2,��
2022/10/23,06:50,0.573,0.824,0.529,1.028,0.725,0.337,0.588,0.554,�k�k��,3.3,��
2022/10/23,07:00,0.573,0.823,0.530,1.025,0.725,0.338,0.588,0.554,�k�k��,3.4,��
2022/10/23,07:10,0.574,0.823,0.529,1.024,0.727,0.337,0.589,0.555,�k��,3.5,��
2022/10/23,07:20,0.573,0.823,0.530,1.025,0.725,0.338,0.587,0.554,�k��,3.2,��
2022/10/23,07:30,0.573,0.825,0.530,1.026,0.725,0.338,0.587,0.554,�k��,3.5,��
2022/10/23,07:40,0.573,0.825,0.532,1.027,0.726,0.338,0.587,0.554,���k��,2.6,��
2022/10/23,07:50,0.574,0.824,0.531,1.028,0.728,0.338,0.589,0.556,�k��,2.6,��
2022/10/23,08:00,0.574,0.825,0.529,1.028,0.728,0.337,0.587,0.555,�k��,2.9,��
2022/10/23,08:10,0.575,0.823,0.530,1.028,0.727,0.338,0.585,0.555,�k��,3.6,��
2022/10/23,08:20,0.575,0.821,0.531,1.028,0.727,0.338,0.587,0.556,�k��,2.8,��
2022/10/23,08:30,0.573,0.822,0.532,1.028,0.727,0.338,0.586,0.553,���k��,2.6,��
2022/10/23,08:40,0.574,0.820,0.531,1.029,0.727,0.337,0.586,0.554,���k��,3.6,��
2022/10/23,08:50,0.572,0.823,0.532,1.027,0.727,0.338,0.585,0.556,�k��,3.2,��
2022/10/23,09:00,0.574,0.822,0.532,1.025,0.727,0.337,0.586,0.555,�k��,3.2,��
2022/10/23,09:10,0.574,0.821,0.532,1.027,0.727,0.337,0.587,0.555,�k�k��,2.9,��
2022/10/23,09:20,0.573,0.821,0.531,1.027,0.727,0.336,0.586,0.553,�k��,3.9,��
2022/10/23,09:30,0.575,0.823,0.531,1.026,0.726,0.337,0.587,0.554,�k�k��,3.8,��
2022/10/23,09:40,0.573,0.821,0.532,1.027,0.728,0.336,0.585,0.554,�k�k��,2.6,��
2022/10/23,09:50,0.573,0.822,0.532,1.030,0.728,0.337,0.585,0.554,�k��,2.3,��
2022/10/23,10:00,0.574,0.820,0.532,1.029,0.727,0.337,0.585,0.554,�k��,1.9,��
2022/10/23,10:10,0.571,0.821,0.529,1.029,0.726,0.336,0.587,0.554,�k,1.4,��
2022/10/23,10:20,0.572,0.823,0.530,1.028,0.725,0.337,0.588,0.554,�k,1.7,��
2022/10/23,10:30,0.574,0.821,0.528,1.028,0.726,0.337,0.587,0.553,�k��,1.5,��
2022/10/23,10:40,0.572,0.823,0.529,1.028,0.726,0.337,0.587,0.554,�k��,2.0,��
2022/10/23,10:50,0.572,0.821,0.530,1.029,0.726,0.337,0.588,0.552,�k��,1.9,��
2022/10/23,11:00,0.573,0.823,0.529,1.031,0.727,0.337,0.586,0.553,�k��,1.7,��
2022/10/23,11:10,0.572,0.823,0.529,1.029,0.727,0.336,0.586,0.552,�k�k��,1.4,��
2022/10/23,11:20,0.572,0.823,0.528,1.029,0.727,0.335,0.586,0.552,�k��,1.1,��
2022/10/23,11:30,0.574,0.824,0.532,1.029,0.726,0.338,0.587,0.554,���k��,1.4,��
2022/10/23,11:40,0.575,0.824,0.530,1.027,0.728,0.337,0.588,0.553,���k��,1.1,��
2022/10/23,11:50,0.574,0.822,0.529,1.029,0.728,0.337,0.586,0.553,���k��,1.5,��
2022/10/23,12:00,0.574,0.823,0.531,1.030,0.726,0.336,0.587,0.553,���k��,1.7,��
2022/10/23,12:10,0.576,0.822,0.530,1.031,0.728,0.336,0.587,0.552,���k��,1.5,��
2022/10/23,12:20,0.573,0.824,0.529,1.029,0.727,0.336,0.586,0.553,��,1.5,��
2022/10/23,12:30,0.574,0.824,0.530,1.029,0.728,0.336,0.586,0.553,�k��,2.0,��
2022/10/23,12:40,0.572,0.825,0.530,1.030,0.727,0.337,0.587,0.553,�k��,2.2,��
2022/10/23,12:50,0.575,0.826,0.530,1.030,0.727,0.336,0.588,0.553,���k��,2.0,��
2022/10/23,13:00,0.574,0.824,0.528,1.030,0.728,0.338,0.587,0.552,���k��,1.2,��
2022/10/23,13:10,0.573,0.825,0.529,1.032,0.728,0.336,0.586,0.554,�k�k��,1.5,��
2022/10/23,13:20,0.575,0.825,0.530,1.029,0.729,0.337,0.587,0.555,�k�k��,1.7,��
2022/10/23,13:30,0.573,0.824,0.530,1.029,0.727,0.337,0.588,0.554,�k�k��,0.9,��
2022/10/23,13:40,0.574,0.825,0.529,1.031,0.729,0.338,0.588,0.554,�k��,1.2,��
2022/10/23,13:50,0.575,0.825,0.530,1.031,0.728,0.338,0.587,0.553,�k�k��,1.1,��
2022/10/23,14:00,0.573,0.824,0.529,1.031,0.726,0.337,0.585,0.554,�k�k��,1.1,��
2022/10/23,14:10,0.574,0.824,0.529,1.030,0.729,0.338,0.587,0.553,�k��,1.4,��
2022/10/23,14:20,0.575,0.824,0.529,1.030,0.727,0.337,0.586,0.554,�k�k��,2.3,��
2022/10/23,14:30,0.573,0.823,0.529,1.031,0.730,0.339,0.587,0.554,�k��,2.5,��
2022/10/23,14:40,0.573,0.823,0.530,1.031,0.728,0.337,0.586,0.553,�k��,2.8,��
2022/10/23,14:50,0.575,0.823,0.529,1.032,0.727,0.338,0.586,0.554,�k��,2.9,��
2022/10/23,15:00,0.573,0.823,0.531,1.034,0.730,0.337,0.587,0.554,�k��,3.2,��
2022/10/23,15:10,0.572,0.825,0.529,1.031,0.728,0.336,0.587,0.554,�k�k��,3.6,��
2022/10/23,15:20,0.572,0.825,0.530,1.029,0.728,0.338,0.587,0.554,�k�k��,3.5,��
2022/10/23,15:30,0.575,0.825,0.530,1.029,0.727,0.338,0.587,0.554,�k,4.3,��
2022/10/23,15:40,0.573,0.825,0.529,1.031,0.728,0.338,0.585,0.554,�k,4.0,��
2022/10/23,15:50,0.573,0.826,0.529,1.031,0.728,0.338,0.587,0.554,�k,5.5,��
2022/10/23,16:00,0.574,0.824,0.530,1.029,0.728,0.338,0.587,0.553,�k,5.7,��
2022/10/23,16:10,0.572,0.826,0.530,1.032,0.729,0.337,0.586,0.555,�k,8.2,��
2022/10/23,16:20,0.573,0.823,0.529,1.032,0.728,0.337,0.585,0.555,�k,8.8,��
2022/10/23,16:30,0.573,0.825,0.531,1.031,0.727,0.338,0.587,0.555,�k,9.0,��
2022/10/23,16:40,0.573,0.826,0.527,1.030,0.729,0.337,0.585,0.554,�k,7.2,��
2022/10/23,16:50,0.572,0.826,0.529,1.031,0.727,0.337,0.586,0.554,�k,5.9,��
2022/10/23,17:00,0.571,0.824,0.531,1.029,0.726,0.337,0.586,0.553,�k,6.9,��
2022/10/23,17:10,0.571,0.825,0.527,1.028,0.728,0.338,0.585,0.554,�k,8.1,��
2022/10/23,17:20,0.572,0.824,0.529,1.031,0.726,0.338,0.586,0.553,�k�k��,8.2,��
2022/10/23,17:30,0.573,0.827,0.530,1.030,0.728,0.337,0.585,0.553,�k�k��,6.8,��
2022/10/23,17:40,0.571,0.828,0.532,1.030,0.729,0.337,0.585,0.553,�k,6.0,��
2022/10/23,17:50,0.573,0.826,0.531,1.033,0.729,0.337,0.587,0.555,�k�k��,5.4,��
2022/10/23,18:00,0.575,0.829,0.530,1.030,0.730,0.337,0.586,0.555,�k�k��,6.2,��
2022/10/23,18:10,0.574,0.827,0.531,1.030,0.732,0.338,0.585,0.556,�k�k��,7.4,��
2022/10/23,18:20,0.574,0.827,0.532,1.031,0.730,0.339,0.586,0.557,�k,6.9,��
2022/10/23,18:30,0.575,0.827,0.532,1.029,0.730,0.337,0.587,0.555,�k�k��,8.5,��
2022/10/23,18:40,0.575,0.829,0.530,1.032,0.732,0.338,0.587,0.558,�k,7.0,��
2022/10/23,18:50,0.576,0.829,0.531,1.030,0.731,0.339,0.586,0.555,�k�k��,7.5,��
2022/10/23,19:00,0.576,0.830,0.532,1.031,0.731,0.338,0.587,0.555,�k,6.1,��
2022/10/23,19:10,0.576,0.827,0.531,1.031,0.730,0.340,0.587,0.555,�k�k��,7.0,��
2022/10/23,19:20,0.574,0.829,0.532,1.031,0.732,0.336,0.586,0.556,�k�k��,7.6,��
2022/10/23,19:30,0.575,0.829,0.531,1.031,0.731,0.338,0.585,0.555,�k,8.5,��
2022/10/23,19:40,0.575,0.830,0.533,1.032,0.733,0.337,0.585,0.555,�k,7.0,��
2022/10/23,19:50,0.576,0.829,0.532,1.034,0.729,0.336,0.585,0.556,�k,7.2,��
2022/10/23,20:00,0.577,0.828,0.531,1.034,0.729,0.337,0.585,0.555,�k�k��,7.2,��
2022/10/23,20:10,0.574,0.828,0.532,1.035,0.730,0.337,0.585,0.556,�k,6.7,��
2022/10/23,20:20,0.573,0.827,0.533,1.034,0.728,0.338,0.585,0.555,�k�k��,6.3,��
2022/10/23,20:30,0.574,0.828,0.531,1.033,0.730,0.338,0.584,0.555,�k�k��,6.7,��
2022/10/23,20:40,0.576,0.827,0.532,1.032,0.731,0.339,0.586,0.556,�k�k��,6.1,��
2022/10/23,20:50,0.574,0.829,0.532,1.033,0.729,0.337,0.584,0.555,�k�k��,5.6,��
2022/10/23,21:00,0.574,0.829,0.532,1.032,0.729,0.337,0.587,0.556,�k,6.7,��
2022/10/23,21:10,0.576,0.827,0.533,1.033,0.728,0.336,0.586,0.556,�k,6.7,��
2022/10/23,21:20,0.576,0.830,0.530,1.032,0.731,0.337,0.585,0.556,�k,5.6,��
2022/10/23,21:30,0.576,0.827,0.531,1.033,0.730,0.336,0.585,0.556,�k,5.6,�L
2022/10/23,21:40,0.574,0.829,0.531,1.030,0.729,0.340,0.586,0.555,�k�k��,5.4,�L
2022/10/23,21:50,0.575,0.827,0.530,1.033,0.729,0.339,0.586,0.557,�k,5.2,�L
2022/10/23,22:00,0.573,0.827,0.532,1.033,0.729,0.339,0.588,0.556,�k,6.1,�L
2022/10/23,22:10,0.573,0.828,0.531,1.034,0.732,0.339,0.588,0.557,�k,6.2,�L
2022/10/23,22:20,0.573,0.829,0.530,1.032,0.731,0.338,0.587,0.557,�k,7.0,�L
2022/10/23,22:30,0.575,0.830,0.531,1.032,0.731,0.341,0.585,0.556,�k,8.1,�L
2022/10/23,22:40,0.576,0.829,0.531,1.033,0.733,0.340,0.586,0.557,�k,6.5,�L
2022/10/23,22:50,0.574,0.830,0.532,1.033,0.733,0.340,0.586,0.557,�k,7.6,�L
2022/10/23,23:00,0.574,0.830,0.531,1.034,0.733,0.340,0.586,0.556,�k�k��,7.2,��
2022/10/23,23:10,0.575,0.831,0.530,1.032,0.733,0.339,0.586,0.556,�k�k��,7.3,��
2022/10/23,23:20,0.574,0.829,0.530,1.032,0.732,0.338,0.586,0.555,�k�k��,6.4,��
2022/10/23,23:30,0.575,0.827,0.531,1.033,0.731,0.339,0.587,0.556,�k�k��,5.6,�L
2022/10/23,23:40,0.574,0.830,0.530,1.032,0.730,0.338,0.588,0.556,�k�k��,5.5,�L
2022/10/23,23:50,0.575,0.830,0.531,1.033,0.730,0.338,0.587,0.556,�k�k��,5.6,�L
